Weather History for KMKG - July, 2013

Change the Weather History Date:

Wednesday, July 31, 2013

  Actual Average Record
Temperature  
Mean Temperature 68 °F 71 °F  
Max Temperature 73 °F 80 °F 93 °F (1975)
Min Temperature 63 °F 62 °F 42 °F (1934)
Degree Days  
Heating Degree Days 0 0  
Month to date heating degree days 17 4  
Since 1 June heating degree days 69 77  
Since 1 July heating degree days 17 11  
Cooling Degree Days 3 6  
Month to date cooling degree days 218 202  
Year to date cooling degree days 378 336  
Since 1 June cooling degree days 318 307  
Growing Degree Days 18 (Base 50)    
Moisture  
Dew Point 62 °F    
Average Humidity 83    
Maximum Humidity 93    
Minimum Humidity 73    
Precipitation  
Precipitation 0.13 in 0.09 in 2.10 in (1904)
Month to date precipitation 2.29 2.37  
Year to date precipitation 29.31 17.19  
Snow  
Snow 0.00 in 0.00 in - ()
Month to date snowfall 0.0 0.0  
Since 1 June snowfall 0.0 0.0  
Since 1 July snowfall 0.0 0.0  
Snow Depth 0.00 in    
Sea Level Pressure  
Sea Level Pressure 30.03 in    
Wind  
Wind Speed 4 mph (NE)    
Max Wind Speed 10 mph    
Max Gust Speed 16 mph    
Visibility 9 miles    
Events Rain    
T = Trace of Precipitation, MM = Missing Value Source: NWS Daily Summary

Daily Weather History Graph

Daily Weather History Graph

Search for Another Location

Airport or City:

Trip Planner

Search our weather history database for the weather conditions in past years. The results will help you decide how hot, cold, wet, or windy it might be!

Date:

Astronomy

Jul. 31, 2013 Rise Set
Actual Time 6:34 AM EDT 9:07 PM EDT
Civil Twilight 6:02 AM EDT 9:39 PM EDT
Nautical Twilight 5:21 AM EDT 10:20 PM EDT
Astronomical Twilight 4:35 AM EDT 11:05 PM EDT
Moon 1:29 AM EDT (7/31) 4:23 PM EDT (7/31)
Length of Visible Light 15h 37m
Length of Day
14h 32m
Waning Crescent, 32% of the Moon is Illuminated
Jul 31
Waning Crescent
Aug 6
New
Aug 14
First Quarter
Aug 20
Full
Aug 28
Last Quarter

Hourly Weather History & Observations

Time (EDT) Temp. Dew Point Humidity Pressure Visibility Wind Dir Wind Speed Gust Speed Precip Events Conditions
12:55 AM 64.9 °F 61.0 °F 87% 30.11 in 9.0 mi ENE 3.5 mph - N/A   Overcast
1:55 AM 64.9 °F 61.0 °F 87% 30.09 in 10.0 mi Calm Calm - 0.00 in   Overcast
2:55 AM 66.0 °F 61.0 °F 84% 30.09 in 10.0 mi Calm Calm - 0.00 in   Overcast
3:55 AM 64.9 °F 61.0 °F 87% 30.09 in 10.0 mi Calm Calm - N/A   Overcast
4:55 AM 64.0 °F 60.1 °F 87% 30.08 in 10.0 mi ENE 5.8 mph - N/A   Overcast
5:55 AM 64.0 °F 60.1 °F 87% 30.07 in 10.0 mi ENE 5.8 mph - N/A   Overcast
6:55 AM 64.0 °F 59.0 °F 84% 30.07 in 10.0 mi NE 5.8 mph - N/A   Overcast
7:55 AM 64.0 °F 60.1 °F 87% 30.08 in 4.0 mi NE 6.9 mph - 0.00 in Rain Light Rain
8:32 AM 64.4 °F 60.8 °F 88% 30.09 in 10.0 mi NE 5.8 mph - 0.00 in Rain Light Rain
8:55 AM 64.0 °F 61.0 °F 90% 30.09 in 9.0 mi NE 4.6 mph - 0.01 in Rain Light Rain
9:18 AM 64.4 °F 60.8 °F 88% 30.08 in 2.5 mi NE 6.9 mph - 0.03 in Rain Light Rain
9:36 AM 64.4 °F 60.8 °F 88% 30.08 in 3.0 mi NE 5.8 mph - 0.06 in Rain Light Rain
9:55 AM 64.0 °F 61.0 °F 90% 30.07 in 2.5 mi NE 6.9 mph - 0.07 in Rain Light Rain
10:19 AM 64.4 °F 62.6 °F 94% 30.07 in 6.0 mi ENE 8.1 mph - 0.02 in Rain Light Rain
10:55 AM 66.0 °F 62.1 °F 87% 30.05 in 10.0 mi East 8.1 mph - 0.02 in   Overcast
11:11 AM 66.2 °F 62.6 °F 88% 30.05 in 10.0 mi East 8.1 mph - N/A   Overcast
11:53 AM 66.2 °F 62.6 °F 88% 30.05 in 10.0 mi ENE 4.6 mph - N/A   Overcast
11:55 AM 66.9 °F 63.0 °F 87% 30.05 in 10.0 mi ENE 4.6 mph - N/A   Overcast
12:55 PM 68.0 °F 63.0 °F 84% 30.03 in 10.0 mi ENE 5.8 mph - 0.00 in   Overcast
1:33 PM 71.6 °F 62.6 °F 73% 30.02 in 10.0 mi ESE 4.6 mph - N/A   Overcast
1:42 PM 71.6 °F 62.6 °F 73% 30.01 in 10.0 mi SE 4.6 mph - N/A   Overcast
1:55 PM 72.0 °F 64.0 °F 76% 30.00 in 10.0 mi ESE 5.8 mph - N/A   Overcast
2:25 PM 71.6 °F 62.6 °F 73% 30.00 in 10.0 mi Calm Calm - N/A   Overcast
2:55 PM 71.1 °F 63.0 °F 75% 30.00 in 10.0 mi Calm Calm - N/A   Overcast
3:55 PM 71.1 °F 64.0 °F 78% 29.98 in 10.0 mi WNW 3.5 mph - N/A   Overcast
4:55 PM 70.0 °F 63.0 °F 78% 29.97 in 10.0 mi West 6.9 mph - N/A   Overcast
5:55 PM 70.0 °F 62.1 °F 76% 29.95 in 10.0 mi West 3.5 mph - N/A   Overcast
6:22 PM 71.6 °F 62.6 °F 73% 29.96 in 10.0 mi WSW 5.8 mph - N/A   Mostly Cloudy
6:55 PM 70.0 °F 62.1 °F 76% 29.96 in 10.0 mi West 4.6 mph - N/A   Mostly Cloudy
7:55 PM 66.9 °F 62.1 °F 84% 29.96 in 10.0 mi Calm Calm - N/A   Overcast
8:41 PM 66.2 °F 62.6 °F 88% 29.97 in 9.0 mi West 9.2 mph - N/A   Mostly Cloudy
8:55 PM 66.9 °F 62.1 °F 84% 29.97 in 10.0 mi NW 5.8 mph - N/A   Mostly Cloudy
9:55 PM 66.0 °F 63.0 °F 90% 29.95 in 6.0 mi SSW 3.5 mph - 0.03 in Rain Light Rain
10:55 PM 64.0 °F 62.1 °F 93% 29.94 in 4.0 mi NW 4.6 mph - 0.00 in   Clear
11:55 PM 63.0 °F 60.1 °F 90% 29.94 in 5.0 mi WSW 3.5 mph - N/A   Clear